EW0482 Weather Reports


Display with metric or nautical units.
time (UTC)temp
F
wind
direction
speed
MPH
gust
MPH
rain 1hr
in
rain 24hr
in
rain mn
in
humidity
%
barometer
mb
20260903061512 68 248 0.0 0.0 0.00 0.00 0.00 81 1003.6
20260903060034 68 249 0.0 0.0 0.00 0.00 0.00 82 1003.5
20260903054510 68 249 0.0 0.0 0.00 0.00 0.00 82 1003.4
20260903053010 68 249 0.0 0.0 0.00 0.00 0.00 82 1003.4
20260903051510 68 249 0.0 0.0 0.00 0.00 0.00 81 1003.4
20260903050009 68 249 0.0 0.0 0.00 0.00 0.00 80 1003.3
20260903044509 68 249 0.0 0.0 0.00 0.00 0.00 80 1003.3
20260903043021 69 250 0.0 0.0 0.00 0.00 0.00 80 1003.3
20260903041507 69 249 0.0 0.0 0.00 0.00 0.00 79 1003.3
20260903040009 70 249 0.0 0.0 0.00 0.00 0.00 77 1003.2
20260903034508 71 249 0.0 0.0 0.00 0.00 0.00 76 1003.1
20260903033012 71 249 0.0 0.0 0.00 0.00 0.00 75 1002.9
20260903031506 72 249 0.0 1.0 0.00 0.00 0.00 74 1002.8
20260903030006 71 249 0.0 0.0 0.00 0.00 0.00 73 1002.7
20260903024505 71 250 0.0 1.0 0.00 0.00 0.00 71 1002.8
20260903023004 72 250 0.0 1.0 0.00 0.00 0.00 70 1002.9
20260903021512 71 249 0.0 2.0 0.00 0.00 0.00 69 1002.8
20260903020004 71 241 0.0 5.0 0.00 0.00 0.00 69 1002.8
20260903014502 72 245 1.0 6.0 0.00 0.00 0.00 69 1002.9
20260903013004 73 237 0.0 7.0 0.00 0.00 0.00 70 1002.9
20260903011502 73 225 0.0 8.0 0.00 0.00 0.00 70 1002.8
20260903010004 73 236 2.0 8.0 0.00 0.00 0.00 69 1002.9
20260903004501 74 260 1.0 6.0 0.00 0.00 0.00 68 1002.9
20260903003000 75 257 2.0 8.0 0.00 0.00 0.00 69 1002.9
20260903001612 75 247 3.0 9.0 0.00 0.00 0.00 68 1003.0
20260903000100 76 227 0.0 10.0 0.00 0.00 0.00 68 1003.0
20260902234621 77 227 0.0 10.0 0.00 0.00 0.00 66 1003.2
20260902233057 77 247 0.0 4.0 0.00 0.00 0.00 66 1003.2
20260902231609 77 275 1.0 10.0 0.00 0.00 0.00 65 1003.3
20260902230107 77 178 1.0 7.0 0.00 0.00 0.00 64 1003.4
20260902224554 77 254 1.0 7.0 0.00 0.00 0.00 59 1003.4
20260902223052 77 246 3.0 8.0 0.00 0.00 0.00 61 1003.6
20260902221551 78 248 4.0 9.0 0.00 0.00 0.00 63 1003.8
20260902220052 79 227 0.0 6.0 0.00 0.00 0.00 62 1003.8
20260902214548 78 178 0.0 6.0 0.00 0.00 0.00 62 1004.0
20260902213046 78 245 2.0 7.0 0.00 0.00 0.00 61 1004.1
20260902211545 78 178 0.0 5.0 0.00 0.00 0.00 61 1004.1
20260902210044 78 214 0.0 7.0 0.00 0.00 0.00 63 1004.4
20260902204543 78 208 1.0 5.0 0.00 0.00 0.00 63 1004.5
20260902203042 78 221 0.0 6.0 0.00 0.00 0.00 63 1004.5
20260902201542 78 246 3.0 9.0 0.00 0.00 0.00 63 1004.6
20260902200141 78 252 3.0 12.0 0.00 0.00 0.00 64 1004.7
20260902194540 78 219 0.0 2.0 0.00 0.00 0.00 66 1004.8
20260902193040 78 266 0.0 5.0 0.00 0.00 0.00 65 1005.0
20260902191540 77 244 1.0 7.0 0.00 0.00 0.00 66 1005.0
20260902190038 79 239 1.0 8.0 0.00 0.00 0.00 63 1005.3
20260902184537 80 238 1.0 4.0 0.00 0.00 0.00 61 1005.3
20260902183037 80 61 0.0 4.0 0.00 0.00 0.00 57 1005.3
20260902181533 79 91 0.0 2.0 0.00 0.00 0.00 59 1005.4
20260902180031 78 243 1.0 3.0 0.00 0.00 0.00 59 1005.4
20260902174533 77 108 0.0 3.0 0.00 0.00 0.00 61 1005.4
20260902173034 77 130 0.0 2.0 0.00 0.00 0.00 63 1005.5
20260902171526 76 185 0.0 2.0 0.00 0.00 0.00 64 1005.4
20260902170021 76 19 0.0 2.0 0.00 0.00 0.00 68 1005.3
20260902164517 75 113 0.0 1.0 0.00 0.00 0.00 70 1005.2
20260902163017 74 109 0.0 2.0 0.00 0.00 0.00 70 1005.2
20260902161532 74 246 0.0 1.0 0.00 0.00 0.00 72 1005.2
20260902160011 73 245 0.0 1.0 0.00 0.00 0.00 73 1005.3
20260902154510 72 248 0.0 0.0 0.00 0.00 0.00 75 1005.2
20260902153006 71 248 0.0 1.0 0.00 0.00 0.00 77 1005.1
20260902151508 70 248 0.0 1.0 0.00 0.00 0.00 77 1005.1
20260902150001 70 249 0.0 1.0 0.00 0.00 0.00 78 1005.1
20260902144603 68 248 0.0 0.0 0.00 0.00 0.00 82 1005.1
20260902143056 66 249 0.0 0.0 0.00 0.00 0.00 85 1005.1
20260902141549 63 248 0.0 0.0 0.00 0.00 0.00 85 1004.8
20260902140051 62 248 0.0 0.0 0.00 0.00 0.00 85 1004.6
20260902134548 62 248 0.0 0.0 0.00 0.00 0.00 85 1004.5
20260902133047 62 248 0.0 0.0 0.00 0.00 0.00 86 1004.3
20260902131547 62 248 0.0 1.0 0.00 0.00 0.00 86 1004.3
20260902130045 61 248 0.0 1.0 0.00 0.00 0.00 86 1004.3
20260902124545 62 248 0.0 0.0 0.00 0.00 0.00 86 1004.4
20260902123045 62 248 0.0 0.0 0.00 0.00 0.00 86 1004.5
20260902121544 62 248 0.0 0.0 0.00 0.00 0.00 86 1004.5
20260902120046 62 248 0.0 0.0 0.00 0.00 0.00 86 1004.5
20260902114605 62 248 0.0 0.0 0.00 0.00 0.00 86 1004.6
20260902113053 62 248 0.0 0.0 0.00 0.00 0.00 86 1004.5
20260902111551 62 248 0.0 0.0 0.00 0.00 0.00 86 1004.6
20260902110041 62 248 0.0 0.0 0.00 0.00 0.00 86 1004.6
20260902104541 62 248 0.0 0.0 0.00 0.00 0.00 86 1004.6
20260902103039 62 248 0.0 0.0 0.00 0.00 0.00 86 1004.6
20260902101538 62 248 0.0 0.0 0.00 0.00 0.00 86 1004.6
20260902100037 62 248 0.0 0.0 0.00 0.00 0.00 86 1004.6
20260902094537 62 248 0.0 0.0 0.00 0.00 0.00 86 1004.7
20260902093036 62 248 0.0 0.0 0.00 0.00 0.00 86 1004.7
20260902091546 62 248 0.0 0.0 0.00 0.00 0.00 86 1004.7
20260902090042 62 248 0.0 0.0 0.00 0.00 0.00 86 1004.7
20260902084534 62 248 0.0 0.0 0.00 0.00 0.00 86 1004.7
20260902083033 62 248 0.0 0.0 0.00 0.00 0.00 86 1004.8
20260902081539 63 248 0.0 0.0 0.00 0.00 0.00 86 1004.8
20260902080030 63 248 0.0 0.0 0.00 0.00 0.00 85 1004.7
20260902074540 63 248 0.0 0.0 0.00 0.00 0.00 85 1004.7
20260902073027 63 248 0.0 0.0 0.00 0.00 0.00 85 1004.6
20260902071525 64 248 0.0 0.0 0.00 0.00 0.00 84 1004.4
20260902070021 64 248 0.0 0.0 0.00 0.00 0.00 84 1004.3
20260902064530 65 248 0.0 0.0 0.00 0.00 0.00 83 1004.2
20260902063023 65 248 0.0 0.0 0.00 0.00 0.00 83 1004.2